Weather in Kozlovka

Russia / Voronezh Oblast     51°39′40″N   41°17′49″E
temp.,
°C
wind,
m/s
gust,
m/s
humid.,
%
clouds,
%
prec.,
mm/h
press.,
hPa
HPBL,
m
6 august, fri
fri600:00+20se494999 0.0 1015188
03:00+19s4105270 0.0 1015178
06:00+19sse385389 0.0 1015153
09:00+26sse583713 0.0 1014593
12:00+30sse672923 0.0 10132054
15:00+31s6728100 0.0 10122553
18:00+29se583463 0.0 1011610
21:00+27se7133349 0.0 1011483
7 august, sat
sat700:00+25se7153725 0.0 1012502
03:00+22se61538100 0.0 1012398
06:00+21se5144181 0.0 1012358
09:00+27sse710305 0.0 1012685
12:00+31se672332 0.0 10121857
15:00+33se67205 0.0 10112494
18:00+31se592592 0.0 1011539
21:00+25ese51232100 0.0 1012241
8 august, sun
sun800:00+23ese5143398 0.0 1012321
03:00+22se41233100 0.0 1013259
06:00+22ese3837100 0.1 1013163
09:00+26ese5831100 0.1 1013322
12:00+32sse4522100 0.0 10141235
15:00+28n3430100 0.0 101558
18:00+28nw0034100 0.0 101611
21:00+25ene3336100 0.0 101734
9 august, mon
mon900:00+26ese2332100 0.0 101753
03:00+25ese4940100 0.1 1018317
06:00+25ene61044100 0.0 1018382
09:00+28ene71134100 0.0 1017867
12:00+31e71027100 0.0 10172053
15:00+24ene51055100 0.6 1018333
18:00+26ene71245100 0.1 1017869
21:00+24ene61547100 0.1 1017410
10 august, tue
tue1000:00+24ene51444100 0.0 1016390
03:00+22ene375099 0.0 1015127
06:00+23ene3740100 0.0 1015171
09:00+25e3634100 0.0 1015287
12:00+32e5720100 0.0 10131677
15:00+34ese7818100 0.0 10112270
18:00+32ese4823100 0.0 1010238
21:00+27s61327100 0.0 1012561